Regional Weather Roundup
Issued by NWS Goodland, KS

Home | Current Version | Previous Version | Text Only | Print | Product List | Glossary Off
Versions: 1 2 3 4 5 6 7 8 9 10 11 12 13 14 15 16 17 18 19 20 21 22 23 24 25 26 27 28 29 30 31 32 33 34 35 36 37 38 39 40 41 42 43 44 45 46 47 48 49 50

000
ASUS43 KGLD 201608
RWRGLD

GOODLAND FORECAST AREA HOURLY WEATHER ROUNDUP
NATIONAL WEATHER SERVICE GOODLAND KS
1000 AM MDT MON OCT 20 2014

...OFFICIAL OBSERVATIONS...

CITY           SKY/WX    TMP DP  RH WIND       PRES   REMARKS
GOODLAND KS    SUNNY     64  47  53 SE5       30.18S
HILL CITY KS   SUNNY     62  50  64 S3        30.14S
IMPERIAL NEB   SUNNY     62  43  49 CALM      30.16S
MCCOOK NEB     SUNNY     56  43  61 VRB3      30.16R
AKRON CO       SUNNY     66  35  31 S16       30.17S
BURLINGTON CO  SUNNY     65  44  46 S8        30.18F
LIMON CO       SUNNY     60  42  51 SE5       30.22S
$$

...UNOFFICIAL OBSERVATIONS...

CITY           SKY/WX    TMP DP  RH WIND       PRES   REMARKS
COLBY KS       SUNNY     64  52  63 NE3       30.18R
GOVE KS          N/A     66  32  28 MISG        N/A
NORTON KS      SUNNY     68  41  37 E7        30.13S
SHARON SPRINGS   N/A     65  51  60 CALM        N/A
TRENTON NEB      N/A     61  32  33 CALM        N/A
KIT CARSON CO    N/A     61  46  56 N7          N/A
YUMA CO          N/A     66  39  37 S10         N/A
$$


USA.gov is the U.S. government's official web portal to all federal, state and local government web resources and services.